| time (UTC) | temp F | wind direction | speed MPH | gust MPH | rain 1hr in | rain 24hr in | rain mn in | humidity % | barometer mb |
| 20260905215605 | 96 | 107 | 5.0 | 11.0 | 0.00 | 0.00 | 0.00 | 46 | 1014.3 |
| 20260905214527 | 97 | 176 | 4.0 | 6.0 | 0.00 | 0.00 | 0.00 | 46 | 1014.4 |
| 20260905213757 | 97 | 130 | 6.0 | 8.0 | 0.00 | 0.00 | 0.00 | 46 | 1009.9 |
| 20260905213529 | 98 | 131 | 6.0 | 8.0 | 0.00 | 0.00 | 0.00 | 46 | 1014.5 |
| 20260905212531 | 97 | 126 | 6.0 | 9.0 | 0.00 | 0.00 | 0.00 | 47 | 1014.5 |
| 20260905211535 | 99 | 68 | 5.0 | 10.0 | 0.00 | 0.00 | 0.00 | 44 | 1014.7 |
| 20260905210757 | 98 | 101 | 4.0 | 6.0 | 0.00 | 0.00 | 0.00 | 44 | 1010.1 |
| 20260905210618 | 98 | 101 | 4.0 | 7.0 | 0.00 | 0.00 | 0.00 | 44 | 1014.8 |
| 20260905205520 | 98 | 112 | 5.0 | 9.0 | 0.00 | 0.00 | 0.00 | 46 | 1014.9 |
| 20260905204521 | 99 | 40 | 4.0 | 7.0 | 0.00 | 0.00 | 0.00 | 44 | 1015.0 |
| 20260905203757 | 97 | 121 | 3.0 | 5.0 | 0.00 | 0.00 | 0.00 | 44 | 1010.5 |
| 20260905203543 | 98 | 122 | 4.0 | 5.0 | 0.00 | 0.00 | 0.00 | 45 | 1015.1 |
| 20260905202526 | 99 | 103 | 5.0 | 7.0 | 0.00 | 0.00 | 0.00 | 45 | 1015.2 |
| 20260905201527 | 100 | 140 | 4.0 | 8.0 | 0.00 | 0.00 | 0.00 | 42 | 1015.3 |
| 20260905200757 | 99 | 107 | 3.0 | 6.0 | 0.00 | 0.00 | 0.00 | 42 | 1010.7 |
| 20260905200529 | 100 | 108 | 4.0 | 6.0 | 0.00 | 0.00 | 0.00 | 42 | 1015.5 |
| 20260905195526 | 98 | 140 | 5.0 | 9.0 | 0.00 | 0.00 | 0.00 | 44 | 1015.9 |
| 20260905194536 | 98 | 120 | 5.0 | 10.0 | 0.00 | 0.00 | 0.00 | 43 | 1016.1 |
| 20260905193757 | 98 | 130 | 5.0 | 7.0 | 0.00 | 0.00 | 0.00 | 41 | 1011.5 |
| 20260905193518 | 98 | 130 | 5.0 | 8.0 | 0.00 | 0.00 | 0.00 | 42 | 1016.2 |
| 20260905192559 | 97 | 119 | 5.0 | 7.0 | 0.00 | 0.00 | 0.00 | 43 | 1016.4 |
| 20260905191522 | 97 | 113 | 5.0 | 8.0 | 0.00 | 0.00 | 0.00 | 44 | 1016.6 |
| 20260905190757 | 97 | 1 | 3.0 | 6.0 | 0.00 | 0.00 | 0.00 | 42 | 1012.3 |
| 20260905190524 | 98 | 2 | 4.0 | 6.0 | 0.00 | 0.00 | 0.00 | 43 | 1016.9 |
| 20260905185526 | 97 | 309 | 3.0 | 5.0 | 0.00 | 0.00 | 0.00 | 46 | 1017.1 |
| 20260905184528 | 96 | 56 | 3.0 | 5.0 | 0.00 | 0.00 | 0.00 | 48 | 1017.2 |
| 20260905183757 | 95 | 140 | 4.0 | 6.0 | 0.00 | 0.00 | 0.00 | 48 | 1012.9 |
| 20260905183530 | 96 | 140 | 4.0 | 7.0 | 0.00 | 0.00 | 0.00 | 49 | 1017.3 |
| 20260905182532 | 96 | 107 | 5.0 | 7.0 | 0.00 | 0.00 | 0.00 | 50 | 1017.4 |
| 20260905181516 | 95 | 91 | 3.0 | 6.0 | 0.00 | 0.00 | 0.00 | 51 | 1017.5 |
| 20260905180757 | 95 | 98 | 4.0 | 6.0 | 0.00 | 0.00 | 0.00 | 51 | 1013.3 |
| 20260905180518 | 95 | 98 | 4.0 | 6.0 | 0.00 | 0.00 | 0.00 | 51 | 1017.7 |
| 20260905175520 | 95 | 89 | 4.0 | 8.0 | 0.00 | 0.00 | 0.00 | 53 | 1017.9 |
| 20260905174522 | 94 | 148 | 5.0 | 8.0 | 0.00 | 0.00 | 0.00 | 55 | 1018.0 |
| 20260905173757 | 93 | 101 | 4.0 | 6.0 | 0.00 | 0.00 | 0.00 | 57 | 1013.9 |
| 20260905173544 | 93 | 101 | 4.0 | 7.0 | 0.00 | 0.00 | 0.00 | 57 | 1018.0 |
| 20260905172527 | 94 | 98 | 5.0 | 9.0 | 0.00 | 0.00 | 0.00 | 57 | 1018.1 |
| 20260905171522 | 93 | 53 | 4.0 | 8.0 | 0.00 | 0.00 | 0.00 | 58 | 1018.3 |
| 20260905170757 | 92 | 92 | 5.0 | 8.0 | 0.00 | 0.00 | 0.00 | 56 | 1014.2 |
| 20260905170518 | 92 | 92 | 5.0 | 8.0 | 0.00 | 0.00 | 0.00 | 57 | 1018.2 |
| 20260905165533 | 92 | 132 | 3.0 | 4.0 | 0.00 | 0.00 | 0.00 | 58 | 1018.2 |
| 20260905164517 | 96 | 120 | 4.0 | 6.0 | 0.00 | 0.00 | 0.00 | 55 | 1018.3 |
| 20260905163757 | 93 | 139 | 4.0 | 9.0 | 0.00 | 0.00 | 0.00 | 56 | 1014.2 |
| 20260905163519 | 94 | 139 | 5.0 | 9.0 | 0.00 | 0.00 | 0.00 | 56 | 1018.4 |
| 20260905162521 | 94 | 125 | 3.0 | 6.0 | 0.00 | 0.00 | 0.00 | 57 | 1018.5 |
| 20260905161523 | 92 | 152 | 4.0 | 6.0 | 0.00 | 0.00 | 0.00 | 60 | 1018.5 |
| 20260905160757 | 90 | 120 | 3.0 | 7.0 | 0.00 | 0.00 | 0.00 | 63 | 1014.5 |
| 20260905160525 | 90 | 121 | 4.0 | 7.0 | 0.00 | 0.00 | 0.00 | 64 | 1018.3 |
| 20260905155527 | 90 | 128 | 4.0 | 6.0 | 0.00 | 0.00 | 0.00 | 65 | 1018.2 |
| 20260905154610 | 89 | 121 | 4.0 | 7.0 | 0.00 | 0.00 | 0.00 | 66 | 1018.3 |
| 20260905153757 | 89 | 124 | 3.0 | 5.0 | 0.00 | 0.00 | 0.00 | 67 | 1014.7 |
| 20260905153531 | 89 | 124 | 3.0 | 5.0 | 0.00 | 0.00 | 0.00 | 68 | 1018.4 |
| 20260905152516 | 86 | 104 | 3.0 | 5.0 | 0.00 | 0.00 | 0.00 | 73 | 1018.5 |
| 20260905151558 | 86 | 116 | 4.0 | 6.0 | 0.00 | 0.00 | 0.00 | 73 | 1018.5 |
| 20260905150757 | 85 | 25 | 3.0 | 4.0 | 0.00 | 0.00 | 0.00 | 74 | 1015.1 |
| 20260905150520 | 85 | 25 | 4.0 | 5.0 | 0.00 | 0.00 | 0.00 | 74 | 1018.5 |
| 20260905145517 | 84 | 127 | 6.0 | 9.0 | 0.00 | 0.00 | 0.00 | 76 | 1018.3 |
| 20260905144518 | 84 | 95 | 5.0 | 9.0 | 0.00 | 0.00 | 0.00 | 79 | 1018.3 |
| 20260905143757 | 81 | 132 | 3.0 | 6.0 | 0.00 | 0.00 | 0.00 | 83 | 1015.4 |
| 20260905143521 | 82 | 132 | 4.0 | 6.0 | 0.00 | 0.00 | 0.00 | 83 | 1018.3 |
| 20260905142537 | 83 | 95 | 4.0 | 6.0 | 0.00 | 0.00 | 0.00 | 82 | 1018.2 |
| 20260905141526 | 82 | 93 | 3.0 | 5.0 | 0.00 | 0.00 | 0.00 | 85 | 1018.2 |
| 20260905140757 | 81 | 118 | 3.0 | 4.0 | 0.00 | 0.00 | 0.00 | 86 | 1015.3 |
| 20260905140527 | 81 | 119 | 3.0 | 5.0 | 0.00 | 0.00 | 0.00 | 87 | 1018.1 |
| 20260905135629 | 79 | 111 | 4.0 | 5.0 | 0.00 | 0.00 | 0.00 | 90 | 1018.0 |
| 20260905134532 | 78 | 98 | 2.0 | 5.0 | 0.00 | 0.00 | 0.00 | 92 | 1018.0 |
| 20260905133757 | 77 | 146 | 2.0 | 5.0 | 0.00 | 0.00 | 0.00 | 93 | 1015.4 |
| 20260905133516 | 78 | 146 | 3.0 | 6.0 | 0.00 | 0.00 | 0.00 | 93 | 1018.0 |
| 20260905132518 | 78 | 129 | 2.0 | 5.0 | 0.00 | 0.00 | 0.00 | 93 | 1017.8 |
| 20260905131522 | 76 | 111 | 3.0 | 6.0 | 0.00 | 0.00 | 0.00 | 96 | 1017.7 |
| 20260905130757 | 75 | 127 | 2.0 | 4.0 | 0.00 | 0.00 | 0.00 | 98 | 1015.4 |
| 20260905130523 | 75 | 127 | 2.0 | 4.0 | 0.00 | 0.00 | 0.00 | 98 | 1017.7 |
| 20260905125524 | 74 | 112 | 1.0 | 4.0 | 0.00 | 0.00 | 0.00 | 99 | 1017.6 |
| 20260905124528 | 74 | 0.0 | 1.0 | 0.00 | 0.00 | 0.00 | 99 | 1017.5 | |
| 20260905123757 | 72 | 0 | 0.0 | 0.0 | 0.00 | 0.00 | 0.00 | 99 | 1015.5 |
| 20260905123528 | 73 | 0.0 | 0.0 | 0.00 | 0.00 | 0.00 | 99 | 1017.5 | |
| 20260905122530 | 73 | 0.0 | 0.0 | 0.00 | 0.00 | 0.00 | 99 | 1017.4 | |
| 20260905121526 | 72 | 106 | 0.0 | 4.0 | 0.00 | 0.00 | 0.00 | 99 | 1017.2 |
| 20260905120757 | 71 | 0 | 0.0 | 0.0 | 0.00 | 0.00 | 0.00 | 99 | 1015.2 |
| 20260905120516 | 72 | 0.0 | 0.0 | 0.00 | 0.00 | 0.00 | 99 | 1017.1 | |
| 20260905115518 | 71 | 0.0 | 0.0 | 0.00 | 0.00 | 0.00 | 99 | 1017.1 | |
| 20260905114520 | 71 | 0.0 | 0.0 | 0.00 | 0.00 | 0.00 | 99 | 1017.1 | |
| 20260905113757 | 71 | 0 | 0.0 | 0.0 | 0.00 | 0.00 | 0.00 | 99 | 1015.3 |
| 20260905113602 | 71 | 0.0 | 0.0 | 0.00 | 0.00 | 0.00 | 99 | 1017.1 | |
| 20260905112523 | 71 | 0.0 | 0.0 | 0.00 | 0.00 | 0.00 | 99 | 1017.1 | |
| 20260905111526 | 72 | 0.0 | 0.0 | 0.00 | 0.00 | 0.00 | 99 | 1017.0 | |
| 20260905110757 | 71 | 0 | 0.0 | 0.0 | 0.00 | 0.00 | 0.00 | 99 | 1015.2 |
| 20260905110548 | 72 | 0.0 | 0.0 | 0.00 | 0.00 | 0.00 | 99 | 1017.1 | |
| 20260905105610 | 71 | 0.0 | 0.0 | 0.00 | 0.00 | 0.00 | 99 | 1017.1 | |
| 20260905104532 | 71 | 0.0 | 0.0 | 0.00 | 0.00 | 0.00 | 99 | 1017.1 | |
| 20260905103757 | 71 | 0 | 0.0 | 0.0 | 0.00 | 0.00 | 0.00 | 99 | 1015.3 |
| 20260905103536 | 71 | 0.0 | 0.0 | 0.00 | 0.00 | 0.00 | 99 | 1017.1 | |
| 20260905102518 | 71 | 0.0 | 0.0 | 0.00 | 0.00 | 0.00 | 99 | 1017.1 | |
| 20260905101521 | 71 | 0.0 | 0.0 | 0.00 | 0.00 | 0.00 | 99 | 1017.0 | |
| 20260905100757 | 71 | 0 | 0.0 | 0.0 | 0.00 | 0.00 | 0.00 | 98 | 1015.1 |
| 20260905100543 | 71 | 0.0 | 0.0 | 0.00 | 0.00 | 0.00 | 98 | 1016.9 | |
| 20260905095525 | 71 | 0.0 | 0.0 | 0.00 | 0.00 | 0.00 | 98 | 1016.8 | |
| 20260905094527 | 72 | 0.0 | 0.0 | 0.00 | 0.00 | 0.00 | 98 | 1016.8 | |
| 20260905093757 | 71 | 0 | 0.0 | 0.0 | 0.00 | 0.00 | 0.00 | 96 | 1014.9 |
| 20260905093523 | 72 | 0.0 | 0.0 | 0.00 | 0.00 | 0.00 | 96 | 1016.8 | |
| 20260905092519 | 72 | 0.0 | 0.0 | 0.00 | 0.00 | 0.00 | 95 | 1016.9 | |
| 20260905091515 | 73 | 0.0 | 0.0 | 0.00 | 0.00 | 0.00 | 94 | 1017.0 | |
| 20260905090757 | 72 | 0 | 0.0 | 1.0 | 0.00 | 0.00 | 0.00 | 94 | 1014.9 |
| 20260905090537 | 73 | 0.0 | 1.0 | 0.00 | 0.00 | 0.00 | 94 | 1016.9 | |
| 20260905085520 | 73 | 0.0 | 0.0 | 0.00 | 0.00 | 0.00 | 92 | 1017.0 | |
| 20260905084541 | 73 | 135 | 1.0 | 3.0 | 0.00 | 0.00 | 0.00 | 92 | 1016.9 |
| 20260905083757 | 73 | 135 | 0.0 | 2.0 | 0.00 | 0.00 | 0.00 | 91 | 1014.8 |
| 20260905083524 | 73 | 135 | 0.0 | 2.0 | 0.00 | 0.00 | 0.00 | 92 | 1016.9 |
| 20260905082526 | 74 | 0.0 | 0.0 | 0.00 | 0.00 | 0.00 | 90 | 1017.0 | |
| 20260905081528 | 74 | 92 | 1.0 | 4.0 | 0.00 | 0.00 | 0.00 | 89 | 1017.0 |
| 20260905080757 | 74 | 0 | 0.0 | 1.0 | 0.00 | 0.00 | 0.00 | 88 | 1015.0 |
| 20260905080531 | 74 | 0 | 0.0 | 1.0 | 0.00 | 0.00 | 0.00 | 88 | 1017.2 |
| 20260905075533 | 75 | 64 | 1.0 | 3.0 | 0.00 | 0.00 | 0.00 | 88 | 1017.1 |
| 20260905074517 | 75 | 101 | 1.0 | 3.0 | 0.00 | 0.00 | 0.00 | 87 | 1017.1 |
| 20260905073757 | 74 | 124 | 1.0 | 4.0 | 0.00 | 0.00 | 0.00 | 87 | 1014.9 |
| 20260905073519 | 75 | 124 | 2.0 | 4.0 | 0.00 | 0.00 | 0.00 | 87 | 1017.1 |
| 20260905072521 | 75 | 124 | 2.0 | 4.0 | 0.00 | 0.00 | 0.00 | 87 | 1017.1 |
| 20260905071523 | 75 | 125 | 1.0 | 2.0 | 0.00 | 0.00 | 0.00 | 87 | 1017.3 |
| 20260905070757 | 74 | 135 | 0.0 | 3.0 | 0.00 | 0.00 | 0.00 | 86 | 1015.2 |
| 20260905070526 | 75 | 135 | 0.0 | 3.0 | 0.00 | 0.00 | 0.00 | 87 | 1017.4 |
| 20260905065522 | 75 | 0.0 | 0.0 | 0.00 | 0.00 | 0.00 | 86 | 1017.3 | |
| 20260905064519 | 76 | 120 | 1.0 | 3.0 | 0.00 | 0.00 | 0.00 | 85 | 1017.4 |
| 20260905063757 | 75 | 97 | 1.0 | 3.0 | 0.00 | 0.00 | 0.00 | 84 | 1015.1 |
| 20260905063532 | 76 | 98 | 1.0 | 4.0 | 0.00 | 0.00 | 0.00 | 85 | 1017.4 |
| 20260905062517 | 76 | 131 | 1.0 | 3.0 | 0.00 | 0.00 | 0.00 | 84 | 1017.4 |
| 20260905061519 | 77 | 132 | 1.0 | 2.0 | 0.00 | 0.00 | 0.00 | 83 | 1017.5 |
| 20260905060757 | 76 | 162 | 0.0 | 2.0 | 0.00 | 0.00 | 0.00 | 82 | 1015.0 |
| 20260905060521 | 77 | 163 | 1.0 | 2.0 | 0.00 | 0.00 | 0.00 | 82 | 1017.4 |
| 20260905055524 | 77 | 135 | 0.0 | 1.0 | 0.00 | 0.00 | 0.00 | 81 | 1017.4 |
| 20260905054525 | 78 | 66 | 1.0 | 3.0 | 0.00 | 0.00 | 0.00 | 80 | 1017.4 |
| 20260905053757 | 77 | 120 | 1.0 | 3.0 | 0.00 | 0.00 | 0.00 | 80 | 1014.9 |
| 20260905053527 | 78 | 121 | 1.0 | 4.0 | 0.00 | 0.00 | 0.00 | 80 | 1017.4 |
| 20260905052529 | 78 | 106 | 1.0 | 3.0 | 0.00 | 0.00 | 0.00 | 80 | 1017.3 |
| 20260905051532 | 78 | 84 | 1.0 | 4.0 | 0.00 | 0.00 | 0.00 | 80 | 1017.4 |
| 20260905050757 | 77 | 155 | 0.0 | 4.0 | 0.00 | 0.00 | 0.00 | 80 | 1014.9 |
| 20260905050516 | 78 | 156 | 1.0 | 4.0 | 0.00 | 0.00 | 0.00 | 80 | 1017.4 |
| 20260905045518 | 78 | 0.0 | 0.0 | 0.00 | 0.00 | 0.00 | 79 | 1017.4 | |
| 20260905044540 | 78 | 116 | 2.0 | 4.0 | 0.00 | 0.00 | 0.00 | 79 | 1017.5 |
| 20260905043757 | 78 | 59 | 1.0 | 2.0 | 0.00 | 0.00 | 0.00 | 78 | 1014.9 |
| 20260905043543 | 78 | 60 | 1.0 | 3.0 | 0.00 | 0.00 | 0.00 | 79 | 1017.5 |
| 20260905042525 | 78 | 101 | 1.0 | 3.0 | 0.00 | 0.00 | 0.00 | 78 | 1017.5 |
| 20260905041521 | 79 | 127 | 1.0 | 3.0 | 0.00 | 0.00 | 0.00 | 76 | 1017.6 |
| 20260905040757 | 79 | 119 | 0.0 | 2.0 | 0.00 | 0.00 | 0.00 | 75 | 1014.8 |
| 20260905040517 | 79 | 119 | 1.0 | 3.0 | 0.00 | 0.00 | 0.00 | 75 | 1017.4 |
| 20260905035531 | 79 | 66 | 1.0 | 2.0 | 0.00 | 0.00 | 0.00 | 74 | 1017.5 |
| 20260905034536 | 79 | 171 | 2.0 | 4.0 | 0.00 | 0.00 | 0.00 | 74 | 1017.4 |
| 20260905033757 | 78 | 55 | 2.0 | 5.0 | 0.00 | 0.00 | 0.00 | 75 | 1014.7 |
| 20260905033518 | 79 | 55 | 2.0 | 5.0 | 0.00 | 0.00 | 0.00 | 75 | 1017.3 |
| 20260905032520 | 79 | 0.0 | 0.0 | 0.00 | 0.00 | 0.00 | 74 | 1017.2 | |
| 20260905031523 | 79 | 0.0 | 0.0 | 0.00 | 0.00 | 0.00 | 73 | 1017.1 | |
| 20260905030757 | 79 | 355 | 0.0 | 1.0 | 0.00 | 0.00 | 0.00 | 72 | 1014.2 |
| 20260905030524 | 80 | 356 | 0.0 | 2.0 | 0.00 | 0.00 | 0.00 | 72 | 1017.0 |
| 20260905025522 | 80 | 203 | 0.0 | 3.0 | 0.00 | 0.00 | 0.00 | 71 | 1016.6 |
| 20260905024523 | 80 | 121 | 1.0 | 3.0 | 0.00 | 0.00 | 0.00 | 70 | 1016.5 |
| 20260905023757 | 80 | 90 | 0.0 | 1.0 | 0.00 | 0.00 | 0.00 | 70 | 1013.6 |
| 20260905023540 | 80 | 90 | 0.0 | 2.0 | 0.00 | 0.00 | 0.00 | 70 | 1016.4 |
| 20260905022522 | 80 | 10 | 0.0 | 3.0 | 0.00 | 0.00 | 0.00 | 72 | 1016.4 |
| 20260905021525 | 81 | 65 | 1.0 | 2.0 | 0.00 | 0.00 | 0.00 | 72 | 1016.2 |
| 20260905020757 | 81 | 112 | 0.0 | 1.0 | 0.00 | 0.00 | 0.00 | 73 | 1013.2 |
| 20260905020527 | 81 | 113 | 0.0 | 1.0 | 0.00 | 0.00 | 0.00 | 74 | 1016.1 |
| 20260905015528 | 81 | 63 | 1.0 | 2.0 | 0.00 | 0.00 | 0.00 | 73 | 1016.1 |
| 20260905014544 | 82 | 45 | 0.0 | 2.0 | 0.00 | 0.00 | 0.00 | 73 | 1016.1 |
| 20260905013757 | 82 | 0 | 0.0 | 0.0 | 0.00 | 0.00 | 0.00 | 70 | 1013.0 |
| 20260905013520 | 83 | 0.0 | 0.0 | 0.00 | 0.00 | 0.00 | 70 | 1016.1 | |
| 20260905012516 | 83 | 90 | 0.0 | 2.0 | 0.00 | 0.00 | 0.00 | 69 | 1016.1 |
| 20260905011518 | 84 | 0.0 | 1.0 | 0.00 | 0.00 | 0.00 | 68 | 1016.0 | |
| 20260905010757 | 84 | 0 | 0.0 | 0.0 | 0.00 | 0.00 | 0.00 | 68 | 1013.0 |
| 20260905010540 | 84 | 0.0 | 0.0 | 0.00 | 0.00 | 0.00 | 68 | 1016.2 | |
| 20260905005522 | 85 | 338 | 0.0 | 2.0 | 0.00 | 0.00 | 0.00 | 66 | 1016.2 |
| 20260905004524 | 85 | 139 | 2.0 | 4.0 | 0.00 | 0.00 | 0.00 | 65 | 1016.3 |
| 20260905003758 | 86 | 111 | 2.0 | 4.0 | 0.00 | 0.00 | 0.00 | 62 | 1013.0 |
| 20260905003526 | 86 | 112 | 3.0 | 4.0 | 0.00 | 0.00 | 0.00 | 63 | 1016.3 |
| 20260905002528 | 86 | 101 | 4.0 | 7.0 | 0.00 | 0.00 | 0.00 | 61 | 1016.2 |
| 20260905001530 | 87 | 124 | 2.0 | 5.0 | 0.00 | 0.00 | 0.00 | 60 | 1016.2 |
| 20260905000757 | 86 | 110 | 3.0 | 4.0 | 0.00 | 0.00 | 0.00 | 58 | 1012.8 |
| 20260905000552 | 87 | 111 | 3.0 | 5.0 | 0.00 | 0.00 | 0.00 | 59 | 1016.2 |
| 20260904235536 | 87 | 107 | 2.0 | 5.0 | 0.00 | 0.00 | 0.00 | 58 | 1016.0 |
| 20260904234518 | 87 | 115 | 3.0 | 6.0 | 0.00 | 0.00 | 0.00 | 56 | 1015.9 |
| 20260904233757 | 88 | 123 | 3.0 | 8.0 | 0.00 | 0.00 | 0.00 | 57 | 1012.0 |
| 20260904233518 | 88 | 123 | 4.0 | 8.0 | 0.00 | 0.00 | 0.00 | 57 | 1015.7 |
| 20260904232520 | 89 | 78 | 4.0 | 6.0 | 0.00 | 0.00 | 0.00 | 59 | 1015.6 |
| 20260904231522 | 90 | 43 | 5.0 | 11.0 | 0.00 | 0.00 | 0.00 | 61 | 1015.5 |
| 20260904230757 | 89 | 75 | 3.0 | 7.0 | 0.00 | 0.00 | 0.00 | 59 | 1011.7 |
| 20260904230518 | 90 | 75 | 3.0 | 8.0 | 0.00 | 0.00 | 0.00 | 59 | 1015.5 |
| 20260904225522 | 90 | 84 | 5.0 | 6.0 | 0.00 | 0.00 | 0.00 | 56 | 1015.4 |
| 20260904224522 | 91 | 65 | 4.0 | 7.0 | 0.00 | 0.00 | 0.00 | 56 | 1015.5 |
| 20260904223757 | 90 | 96 | 5.0 | 10.0 | 0.00 | 0.00 | 0.00 | 56 | 1011.6 |
| 20260904223524 | 91 | 96 | 6.0 | 10.0 | 0.00 | 0.00 | 0.00 | 57 | 1015.5 |
| 20260904222526 | 90 | 96 | 4.0 | 8.0 | 0.00 | 0.00 | 0.00 | 60 | 1015.6 |
| 20260904221529 | 91 | 135 | 6.0 | 8.0 | 0.00 | 0.00 | 0.00 | 59 | 1015.7 |
| 20260904220757 | 91 | 64 | 5.0 | 7.0 | 0.00 | 0.00 | 0.00 | 58 | 1012.0 |
| 20260904220531 | 91 | 64 | 5.0 | 8.0 | 0.00 | 0.00 | 0.00 | 58 | 1015.9 |